"read_dt","SO2 (ppb)","flags","PMT voltage (V)","lamp voltage (V)","lamp intensity (Hz)","internal temp (C)","react chamber temp (C)","sample flow (l/min)","pres (mmHg)","SO2 bkg (ppb)","SO2 coefficient"
2014-03-23 00:00:00,4891E-2,5C000090,-0724,1300,7555,029.9,045.4,0.430,749.8,01.17,0.508
2014-03-23 00:01:00,4928E-2,5C000090,-0724,1301,7483,029.9,045.4,0.434,749.8,01.17,0.508
2014-03-23 00:02:00,4894E-2,5C000090,-0724,1302,7610,029.9,045.4,0.444,749.9,01.17,0.508
2014-03-23 00:03:00,4740E-2,5C000090,-0724,1303,7497,029.9,045.4,0.422,749.8,01.17,0.508
2014-03-23 00:04:00,4762E-2,5C000090,-0724,1305,7560,029.9,045.4,0.429,749.8,01.17,0.508
2014-03-23 00:05:00,4749E-2,5C000090,-0724,1304,7560,029.9,045.4,0.436,749.9,01.17,0.508
2014-03-23 00:06:00,4739E-2,5C000090,-0724,1306,7533,029.9,045.4,0.429,749.9,01.17,0.508
2014-03-23 00:07:00,4711E-2,5C000090,-0724,1306,7557,029.9,045.4,0.421,749.9,01.17,0.508
2014-03-23 00:08:00,4731E-2,5C000090,-0724,1307,7427,029.9,045.4,0.426,749.9,01.17,0.508
2014-03-23 00:09:00,4731E-2,5C000090,-0724,1307,7483,030.0,045.4,0.406,749.9,01.17,0.508
2014-03-23 00:10:00,4800E-2,5C000090,-0724,1308,7479,030.0,045.4,0.403,749.9,01.17,0.508
2014-03-23 00:11:00,4717E-2,5C000090,-0724,1309,7423,029.9,045.4,0.396,749.9,01.17,0.508
2014-03-23 00:12:00,4734E-2,5C000090,-0724,1311,7443,030.0,045.4,0.391,749.9,01.17,0.508
2014-03-23 00:13:00,4750E-2,5C000090,-0724,1313,7468,030.0,045.4,0.382,749.9,01.17,0.508
2014-03-23 00:14:00,4744E-2,5C000090,-0724,1315,7420,030.0,045.4,0.385,750.0,01.17,0.508
2014-03-23 00:15:00,4714E-2,5C000090,-0724,1315,7375,030.0,045.4,0.384,750.0,01.17,0.508
2014-03-23 00:16:00,4773E-2,5C000090,-0724,1316,7442,030.0,045.4,0.376,750.0,01.17,0.508
2014-03-23 00:17:00,4789E-2,5C000090,-0724,1317,7421,030.0,045.4,0.366,750.0,01.17,0.508
2014-03-23 00:18:00,4836E-2,5C000090,-0724,1318,7393,030.0,045.4,0.343,749.9,01.17,0.508
2014-03-23 00:19:00,4730E-2,5C000090,-0724,1319,7359,030.0,045.4,0.348,750.0,01.17,0.508
2014-03-23 00:20:00,4795E-2,5C000090,-0724,1321,7361,030.0,045.4,0.327,749.9,01.17,0.508
2014-03-23 00:21:00,4786E-2,5C000090,-0724,1322,7284,030.0,045.4,0.319,749.9,01.17,0.508
2014-03-23 00:22:00,4793E-2,5C000090,-0724,1322,7301,030.0,045.4,0.328,750.0,01.17,0.508
2014-03-23 00:23:00,4818E-2,5C000090,-0724,1323,7361,030.1,045.4,0.317,750.0,01.17,0.508
2014-03-23 00:24:00,4787E-2,5C000090,-0724,1326,7326,030.0,045.4,0.320,750.0,01.17,0.508
2014-03-23 00:25:00,4768E-2,5C000090,-0724,1328,7363,030.1,045.4,0.307,750.0,01.17,0.508
2014-03-23 00:26:00,4821E-2,5C000090,-0724,1328,7290,030.1,045.4,0.291,750.0,01.17,0.508
2014-03-23 00:27:00,4821E-2,5C000490,-0724,1330,7222,030.1,045.4,0.248,749.9,01.17,0.508
2014-03-23 00:28:00,4728E-2,5C000490,-0724,1330,7333,030.1,045.4,0.271,750.0,01.17,0.508
2014-03-23 00:29:00,4790E-2,5C000090,-0724,1329,7190,030.1,045.4,0.281,750.1,01.17,0.508
2014-03-23 00:30:00,4834E-2,5C000490,-0724,1330,7327,030.1,045.4,0.245,750.0,01.17,0.508
2014-03-23 00:31:00,4822E-2,5C000490,-0724,1330,7208,030.1,045.4,0.232,750.0,01.17,0.508
2014-03-23 00:32:00,4839E-2,5C000490,-0724,1331,7231,030.1,045.4,0.217,750.0,01.17,0.508
2014-03-23 00:33:00,4860E-2,5C000490,-0724,1333,7239,030.1,045.4,0.216,750.0,01.17,0.508
2014-03-23 00:34:00,4848E-2,5C000490,-0724,1333,7166,030.1,045.4,0.220,750.1,01.17,0.508
2014-03-23 00:35:00,4835E-2,5C000490,-0724,1333,7218,030.2,045.4,0.188,750.0,01.17,0.508
2014-03-23 00:36:00,4858E-2,5C000490,-0724,1334,7239,030.2,045.4,0.143,749.9,01.17,0.508
2014-03-23 00:37:00,4871E-2,5C000490,-0724,1335,7206,030.2,045.4,0.175,750.0,01.17,0.508
2014-03-23 00:38:00,4806E-2,5C000490,-0724,1335,7202,030.2,045.4,0.162,750.0,01.17,0.508
2014-03-23 00:39:00,4876E-2,5C000490,-0724,1335,7161,030.2,045.4,0.127,750.0,01.17,0.508
2014-03-23 00:40:00,4848E-2,5C000490,-0724,1337,7248,030.2,045.4,0.103,750.0,01.17,0.508
2014-03-23 00:41:00,4854E-2,5C000490,-0724,1337,7192,030.2,045.4,0.000,750.0,01.17,0.508
2014-03-23 00:42:00,4891E-2,5C000490,-0724,1338,7130,030.2,045.4,0.000,750.0,01.17,0.508
2014-03-23 00:43:00,4921E-2,5C000490,-0724,1339,7212,030.2,045.4,0.000,750.0,01.17,0.508
2014-03-23 00:44:00,4865E-2,5C000490,-0724,1341,7147,030.2,045.4,0.000,750.1,01.17,0.508
2014-03-23 00:45:00,4860E-2,5C000490,-0724,1342,7168,030.2,045.4,0.000,750.1,01.17,0.508
2014-03-23 00:46:00,4846E-2,5C000490,-0724,1343,7146,030.2,045.4,0.000,750.0,01.17,0.508
2014-03-23 00:47:00,4852E-2,5C000490,-0724,1342,7177,030.2,045.4,0.000,750.0,01.17,0.508
2014-03-23 00:48:00,4909E-2,5C000490,-0724,1343,6963,030.2,045.4,0.000,750.0,01.17,0.508
2014-03-23 00:49:00,4886E-2,5C000490,-0724,1344,7104,030.2,045.4,0.000,750.0,01.17,0.508
2014-03-23 00:50:00,4916E-2,5C000490,-0724,1345,7154,030.2,045.4,0.000,750.0,01.17,0.508
2014-03-23 00:51:00,4848E-2,5C000490,-0724,1346,7082,030.2,045.4,0.000,750.1,01.17,0.508
2014-03-23 00:52:00,4900E-2,5C000490,-0724,1348,7118,030.2,045.4,0.000,750.1,01.17,0.508
2014-03-23 00:53:00,4896E-2,5C000490,-0724,1348,7086,030.2,045.4,0.000,750.0,01.17,0.508
2014-03-23 00:54:00,4888E-2,5C000490,-0724,1348,7066,030.3,045.4,0.000,750.0,01.17,0.508
2014-03-23 00:55:00,4927E-2,5C000490,-0724,1349,7113,030.2,045.4,0.000,750.1,01.17,0.508
2014-03-23 00:56:00,4849E-2,5C000490,-0724,1351,7025,030.2,045.4,0.000,750.1,01.17,0.508
2014-03-23 00:57:00,4887E-2,5C000490,-0724,1352,7077,030.3,045.4,0.000,750.1,01.17,0.508
2014-03-23 00:58:00,4856E-2,5C000490,-0724,1351,6932,030.3,045.4,0.000,750.1,01.17,0.508
2014-03-23 00:59:00,4832E-2,5C000490,-0724,1352,6998,030.3,045.4,0.000,750.0,01.17,0.508
2014-03-23 01:00:00,4842E-2,5C000490,-0724,1353,7056,030.3,045.4,0.000,750.1,01.17,0.508
2014-03-23 01:01:00,4889E-2,5C000490,-0724,1351,7050,030.3,045.4,0.000,750.1,01.17,0.508
2014-03-23 01:02:00,4879E-2,5C000490,-0724,1347,7102,030.3,045.4,0.000,750.1,01.17,0.508
2014-03-23 01:03:00,4921E-2,5C000490,-0724,1346,7100,030.3,045.4,0.000,750.2,01.17,0.508
2014-03-23 01:04:00,4945E-2,5C000490,-0724,1348,7063,030.3,045.4,0.000,750.2,01.17,0.508
2014-03-23 01:05:00,4939E-2,5C000490,-0724,1349,6982,030.3,045.4,0.000,750.2,01.17,0.508
2014-03-23 01:06:00,4956E-2,5C000490,-0724,1350,7029,030.3,045.4,0.000,750.1,01.17,0.508
2014-03-23 01:07:00,4916E-2,5C000490,-0724,1352,7010,030.3,045.4,0.000,750.2,01.17,0.508
2014-03-23 01:08:00,4852E-2,5C000490,-0724,1352,7026,030.3,045.4,0.000,750.1,01.17,0.508
2014-03-23 01:09:00,4883E-2,5C000490,-0724,1353,6941,030.3,045.4,0.000,750.1,01.17,0.508
2014-03-23 01:10:00,4904E-2,5C000490,-0724,1354,6948,030.3,045.4,0.000,750.2,01.17,0.508
2014-03-23 01:11:00,4927E-2,5C000490,-0724,1354,6924,030.3,045.4,0.000,750.2,01.17,0.508
2014-03-23 01:12:00,4943E-2,5C000490,-0724,1356,6980,030.3,045.4,0.000,750.2,01.17,0.508
2014-03-23 01:13:00,4955E-2,5C000490,-0724,1356,7022,030.3,045.4,0.000,750.2,01.17,0.508
2014-03-23 01:14:00,4942E-2,5C000490,-0724,1357,6976,030.3,045.4,0.000,750.2,01.17,0.508
2014-03-23 01:15:00,4999E-2,5C000490,-0724,1359,7005,030.4,045.4,0.000,750.2,01.17,0.508
2014-03-23 01:16:00,4993E-2,5C000490,-0724,1360,6979,030.3,045.4,0.000,750.2,01.17,0.508
2014-03-23 01:17:00,4966E-2,5C000490,-0724,1361,6916,030.4,045.4,0.000,750.2,01.17,0.508
2014-03-23 01:18:00,4982E-2,5C000490,-0724,1362,6958,030.3,045.4,0.000,750.2,01.17,0.508
2014-03-23 01:19:00,5041E-2,5C000490,-0724,1363,6891,030.4,045.4,0.000,750.2,01.17,0.508
2014-03-23 01:20:00,5014E-2,5C000490,-0724,1364,6918,030.4,045.4,0.000,750.2,01.17,0.508
2014-03-23 01:21:00,4988E-2,5C000490,-0724,1364,6900,030.4,045.4,0.109,750.2,01.17,0.508
2014-03-23 01:22:00,4986E-2,5C000490,-0724,1365,6914,030.4,045.4,0.109,750.2,01.17,0.508
2014-03-23 01:23:00,4954E-2,5C000490,-0724,1365,6901,030.4,045.4,0.117,750.3,01.17,0.508
2014-03-23 01:24:00,4969E-2,5C000490,-0724,1366,6814,030.4,045.4,0.144,750.2,01.17,0.508
2014-03-23 01:25:00,4998E-2,5C000490,-0724,1367,6786,030.4,045.4,0.156,750.3,01.17,0.508
2014-03-23 01:26:00,4982E-2,5C000490,-0724,1367,6832,030.4,045.4,0.169,750.2,01.17,0.508
2014-03-23 01:27:00,4987E-2,5C000490,-0724,1367,6859,030.4,045.4,0.189,750.2,01.17,0.508
2014-03-23 01:28:00,5025E-2,5C000490,-0724,1367,6823,030.4,045.4,0.189,750.2,01.17,0.508
2014-03-23 01:29:00,4995E-2,5C000490,-0724,1368,6823,030.4,045.4,0.190,750.3,01.17,0.508
2014-03-23 01:30:00,5018E-2,5C000490,-0724,1368,6853,030.4,045.4,0.201,750.3,01.17,0.508
2014-03-23 01:31:00,4987E-2,5C000490,-0724,1369,6883,030.4,045.4,0.205,750.3,01.17,0.508
2014-03-23 01:32:00,5018E-2,5C000490,-0724,1369,6879,030.5,045.4,0.204,750.3,01.17,0.508
2014-03-23 01:33:00,5023E-2,5C000490,-0724,1369,6707,030.5,045.4,0.203,750.3,01.17,0.508
2014-03-23 01:34:00,5071E-2,5C000490,-0724,1370,6785,030.5,045.4,0.202,750.3,01.17,0.508
2014-03-23 01:35:00,4999E-2,5C000490,-0724,1370,6732,030.5,045.4,0.197,750.3,01.17,0.508
2014-03-23 01:36:00,4965E-2,5C000490,-0724,1371,6766,030.5,045.4,0.200,750.3,01.17,0.508
2014-03-23 01:37:00,4968E-2,5C000490,-0724,1371,6776,030.5,045.4,0.204,750.4,01.17,0.508
2014-03-23 01:38:00,5014E-2,5C000490,-0724,1371,6832,030.5,045.4,0.194,750.3,01.17,0.508
2014-03-23 01:39:00,5026E-2,5C000490,-0724,1372,6759,030.5,045.4,0.204,750.4,01.17,0.508
2014-03-23 01:40:00,4932E-2,5C000490,-0724,1372,6763,030.5,045.4,0.207,750.4,01.17,0.508
2014-03-23 01:41:00,5008E-2,5C000490,-0724,1373,6728,030.5,045.4,0.171,750.3,01.17,0.508
2014-03-23 01:42:00,5039E-2,5C000490,-0724,1373,6705,030.5,045.4,0.187,750.3,01.17,0.508
2014-03-23 01:43:00,4998E-2,5C000490,-0724,1373,6700,030.5,045.4,0.207,750.4,01.17,0.508
2014-03-23 01:44:00,4997E-2,5C000490,-0724,1373,6676,030.6,045.4,0.197,750.4,01.17,0.508
2014-03-23 01:45:00,5037E-2,5C000490,-0724,1373,6666,030.6,045.4,0.198,750.4,01.17,0.508
2014-03-23 01:46:00,5051E-2,5C000490,-0724,1374,6704,030.6,045.4,0.203,750.4,01.17,0.508
2014-03-23 01:47:00,5019E-2,5C000490,-0724,1374,6637,030.6,045.4,0.200,750.4,01.17,0.508
2014-03-23 01:48:00,4944E-2,5C000490,-0724,1374,6642,030.6,045.4,0.180,750.4,01.17,0.508
2014-03-23 01:49:00,5047E-2,5C000490,-0724,1374,6604,030.6,045.4,0.170,750.4,01.17,0.508
2014-03-23 01:50:00,5009E-2,5C000490,-0724,1374,6586,030.6,045.4,0.195,750.4,01.17,0.508
2014-03-23 01:51:00,5022E-2,5C000490,-0724,1374,6505,030.6,045.4,0.195,750.5,01.17,0.508
2014-03-23 01:52:00,5041E-2,5C000490,-0724,1375,6569,030.6,045.4,0.170,750.4,01.17,0.508
2014-03-23 01:53:00,5034E-2,5C000490,-0724,1375,6563,030.6,045.4,0.156,750.4,01.17,0.508
2014-03-23 01:54:00,5039E-2,5C000490,-0724,1375,6661,030.6,045.4,0.169,750.4,01.17,0.508
2014-03-23 01:55:00,5108E-2,5C000490,-0724,1375,6542,030.6,045.4,0.155,750.4,01.17,0.508
2014-03-23 01:56:00,5035E-2,5C000490,-0724,1375,6480,030.7,045.4,0.172,750.4,01.17,0.508
2014-03-23 01:57:00,5036E-2,5C000490,-0724,1375,6570,030.7,045.4,0.172,750.4,01.17,0.508
2014-03-23 01:58:00,5026E-2,5C000490,-0724,1375,6586,030.7,045.4,0.151,750.4,01.17,0.508
2014-03-23 01:59:00,5099E-2,5C000490,-0724,1375,6583,030.7,045.4,0.168,750.4,01.17,0.508
2014-03-23 02:00:00,5006E-2,5C000490,-0724,1375,6577,030.7,045.4,0.221,750.6,01.17,0.508
2014-03-23 02:01:00,5039E-2,5C000490,-0724,1374,6624,030.7,045.4,0.212,750.7,01.17,0.508
2014-03-23 02:02:00,5026E-2,5C000490,-0724,1374,6574,030.7,045.4,0.215,750.6,01.17,0.508
2014-03-23 02:03:00,5084E-2,5C000490,-0724,1375,6598,030.7,045.4,0.230,750.7,01.17,0.508
2014-03-23 02:04:00,5098E-2,5C000490,-0724,1374,6610,030.7,045.4,0.231,750.7,01.17,0.508
2014-03-23 02:05:00,5078E-2,5C000490,-0724,1374,6615,030.7,045.4,0.217,750.7,01.17,0.508
2014-03-23 02:06:00,5052E-2,5C000490,-0724,1374,6657,030.7,045.4,0.242,750.8,01.17,0.508
2014-03-23 02:07:00,5091E-2,5C000490,-0724,1374,6530,030.8,045.4,0.229,750.7,01.17,0.508
2014-03-23 02:08:00,5049E-2,5C000490,-0724,1374,6613,030.8,045.4,0.202,750.7,01.17,0.508
2014-03-23 02:09:00,5016E-2,5C000490,-0724,1374,6643,030.8,045.4,0.198,750.6,01.17,0.508
2014-03-23 02:10:00,5072E-2,5C000490,-0724,1374,6683,030.8,045.4,0.197,750.6,01.17,0.508
2014-03-23 02:11:00,5105E-2,5C000490,-0724,1374,6576,030.8,045.4,0.189,750.6,01.17,0.508
2014-03-23 02:12:00,5078E-2,5C000490,-0724,1374,6556,030.8,045.4,0.188,750.6,01.17,0.508
2014-03-23 02:13:00,5018E-2,5C000490,-0724,1374,6618,030.8,045.4,0.176,750.6,01.17,0.508
2014-03-23 02:14:00,5116E-2,5C000490,-0724,1375,6539,030.9,045.4,0.175,750.6,01.17,0.508
2014-03-23 02:15:00,5090E-2,5C000490,-0724,1374,6589,030.8,045.4,0.167,750.6,01.17,0.508
2014-03-23 02:16:00,5075E-2,5C000490,-0724,1374,6547,030.9,045.4,0.162,750.6,01.17,0.508
2014-03-23 02:17:00,5120E-2,5C000490,-0724,1374,6638,030.9,045.4,0.182,750.6,01.17,0.508
2014-03-23 02:18:00,5133E-2,5C000490,-0724,1374,6614,030.9,045.4,0.155,750.6,01.17,0.508
2014-03-23 02:19:00,5117E-2,5C000490,-0724,1374,6612,030.9,045.4,0.150,750.5,01.17,0.508
2014-03-23 02:20:00,5108E-2,5C000490,-0724,1374,6638,030.9,045.4,0.174,750.6,01.17,0.508
2014-03-23 02:21:00,5084E-2,5C000490,-0724,1375,6610,030.9,045.4,0.168,750.6,01.17,0.508
2014-03-23 02:22:00,5104E-2,5C000490,-0724,1375,6614,030.9,045.4,0.148,750.6,01.17,0.508
2014-03-23 02:23:00,5063E-2,5C000490,-0724,1375,6623,030.9,045.4,0.162,750.6,01.17,0.508
2014-03-23 02:24:00,5077E-2,5C000490,-0724,1375,6660,030.9,045.4,0.172,750.6,01.17,0.508
2014-03-23 02:25:00,5095E-2,5C000490,-0724,1375,6579,030.9,045.4,0.147,750.6,01.17,0.508
2014-03-23 02:26:00,5061E-2,5C000490,-0724,1375,6649,030.9,045.4,0.131,750.5,01.17,0.508
2014-03-23 02:27:00,5102E-2,5C000490,-0724,1375,6516,031.0,045.4,0.143,750.6,01.17,0.508
2014-03-23 02:28:00,5116E-2,5C000490,-0724,1375,6643,031.0,045.4,0.136,750.6,01.17,0.508
2014-03-23 02:29:00,5201E-2,5C000490,-0724,1375,6629,031.0,045.4,0.142,750.6,01.17,0.508
2014-03-23 02:30:00,5218E-2,5C000490,-0724,1375,6516,031.0,045.4,0.146,750.6,01.17,0.508
2014-03-23 02:31:00,5146E-2,5C000490,-0724,1375,6567,031.0,045.4,0.139,750.6,01.17,0.508
2014-03-23 02:32:00,5154E-2,5C000490,-0724,1375,6610,031.0,045.4,0.125,750.6,01.17,0.508
2014-03-23 02:33:00,5170E-2,5C000490,-0724,1375,6520,031.0,045.4,0.142,750.6,01.17,0.508
2014-03-23 02:34:00,5148E-2,5C000490,-0724,1374,6810,031.0,045.4,0.123,750.6,01.17,0.508
2014-03-23 02:35:00,5427E-2,5C000490,-0724,1369,6885,031.0,045.4,0.125,750.5,01.17,0.508
2014-03-23 02:36:00,5425E-2,5C000490,-0724,1368,6749,031.1,045.5,0.168,750.5,01.17,0.508
2014-03-23 02:37:00,5473E-2,5C000490,-0724,1368,6832,031.0,045.4,0.124,750.5,01.17,0.508
2014-03-23 02:38:00,5408E-2,5C000490,-0724,1369,6784,031.1,045.4,0.159,750.5,01.17,0.508
2014-03-23 02:39:00,5450E-2,5C000490,-0724,1369,6702,031.0,045.4,0.121,750.6,01.17,0.508
2014-03-23 02:40:00,5412E-2,5C000490,-0724,1369,6776,031.1,045.4,0.154,750.5,01.17,0.508
2014-03-23 02:41:00,5410E-2,5C000490,-0724,1369,6845,031.1,045.4,0.120,750.6,01.17,0.508
2014-03-23 02:42:00,5469E-2,5C000490,-0724,1369,6868,031.1,045.4,0.150,750.5,01.17,0.508
2014-03-23 02:43:00,5385E-2,5C000490,-0724,1369,6659,031.1,045.4,0.167,750.5,01.17,0.508
2014-03-23 02:44:00,5436E-2,5C000490,-0724,1369,6780,031.1,045.5,0.126,750.6,01.17,0.508
2014-03-23 02:45:00,5427E-2,5C000490,-0724,1370,6808,031.1,045.4,0.123,750.7,01.17,0.508
2014-03-23 02:46:00,5393E-2,5C000490,-0724,1370,6783,031.1,045.4,0.141,750.6,01.17,0.508
2014-03-23 02:47:00,5421E-2,5C000490,-0724,1371,6790,031.1,045.4,0.144,750.6,01.17,0.508
2014-03-23 02:48:00,5428E-2,5C000490,-0724,1371,6798,031.1,045.4,0.129,750.7,01.17,0.508
2014-03-23 02:49:00,5436E-2,5C000490,-0724,1371,6753,031.1,045.5,0.139,750.6,01.17,0.508
2014-03-23 02:50:00,5415E-2,5C000490,-0724,1371,6816,031.2,045.5,0.137,750.7,01.17,0.508
2014-03-23 02:51:00,5411E-2,5C000490,-0724,1371,6789,031.1,045.4,0.134,750.6,01.17,0.508
2014-03-23 02:52:00,5438E-2,5C000490,-0724,1371,6743,031.2,045.4,0.135,750.6,01.17,0.508
2014-03-23 02:53:00,5403E-2,5C000490,-0724,1372,6751,031.1,045.4,0.141,750.6,01.17,0.508
2014-03-23 02:54:00,5394E-2,5C000490,-0724,1372,6759,031.2,045.4,0.145,750.7,01.17,0.508
2014-03-23 02:55:00,5397E-2,5C000490,-0724,1372,6613,031.2,045.4,0.146,750.7,01.17,0.508
2014-03-23 02:56:00,5412E-2,5C000490,-0724,1372,6745,031.2,045.5,0.148,750.7,01.17,0.508
2014-03-23 02:57:00,5427E-2,5C000490,-0724,1372,6686,031.2,045.5,0.137,750.7,01.17,0.508
2014-03-23 02:58:00,5381E-2,5C000490,-0724,1373,6691,031.2,045.4,0.106,750.6,01.17,0.508
2014-03-23 02:59:00,5393E-2,5C000490,-0724,1373,6732,031.2,045.4,0.121,750.6,01.17,0.508
2014-03-23 03:00:00,5405E-2,5C000490,-0724,1373,6637,031.2,045.4,0.142,750.7,01.17,0.508
2014-03-23 03:01:00,5419E-2,5C000490,-0724,1373,6748,031.2,045.4,0.141,750.7,01.17,0.508
2014-03-23 03:02:00,5419E-2,5C000490,-0724,1373,6619,031.2,045.5,0.133,750.7,01.17,0.508
2014-03-23 03:03:00,5360E-2,5C000490,-0724,1373,6667,031.2,045.4,0.132,750.7,01.17,0.508
2014-03-23 03:04:00,5373E-2,5C000490,-0724,1373,6603,031.2,045.4,0.136,750.7,01.17,0.508
2014-03-23 03:05:00,5399E-2,5C000490,-0724,1373,6745,031.2,045.4,0.150,750.7,01.17,0.508
2014-03-23 03:06:00,5412E-2,5C000490,-0724,1373,6779,031.2,045.4,0.134,750.7,01.17,0.508
2014-03-23 03:07:00,5340E-2,5C000490,-0724,1373,6747,031.3,045.4,0.147,750.7,01.17,0.508
2014-03-23 03:08:00,5384E-2,5C000490,-0724,1374,6719,031.3,045.5,0.159,750.8,01.17,0.508
2014-03-23 03:09:00,5427E-2,5C000490,-0724,1374,6608,031.3,045.4,0.135,750.7,01.17,0.508
2014-03-23 03:10:00,5403E-2,5C000490,-0724,1374,6705,031.3,045.4,0.129,750.7,01.17,0.508
2014-03-23 03:11:00,5339E-2,5C000490,-0724,1374,6591,031.3,045.5,0.156,750.8,01.17,0.508
2014-03-23 03:12:00,5454E-2,5C000490,-0724,1374,6557,031.2,045.5,0.159,750.8,01.17,0.508
2014-03-23 03:13:00,5393E-2,5C000490,-0724,1374,6545,031.3,045.5,0.132,750.7,01.17,0.508
2014-03-23 03:14:00,5395E-2,5C000490,-0724,1374,6666,031.3,045.5,0.140,750.7,01.17,0.508
2014-03-23 03:15:00,5358E-2,5C000490,-0724,1374,6613,031.3,045.5,0.123,750.7,01.17,0.508
2014-03-23 03:16:00,5260E-2,5C000490,-0724,1375,6593,031.3,045.4,0.146,750.7,01.17,0.508
2014-03-23 03:17:00,5332E-2,5C000490,-0724,1375,6625,031.3,045.4,0.157,750.8,01.17,0.508
2014-03-23 03:18:00,5274E-2,5C000490,-0724,1375,6645,031.3,045.4,0.152,750.7,01.17,0.508
2014-03-23 03:19:00,5322E-2,5C000490,-0724,1375,6696,031.3,045.4,0.196,750.8,01.17,0.508
2014-03-23 03:20:00,5319E-2,5C000490,-0724,1375,6595,031.3,045.4,0.176,750.8,01.17,0.508
2014-03-23 03:21:00,5314E-2,5C000490,-0724,1375,6470,031.3,045.5,0.184,750.8,01.17,0.508
2014-03-23 03:22:00,5377E-2,5C000490,-0724,1375,6634,031.3,045.5,0.161,750.8,01.17,0.508
2014-03-23 03:23:00,5314E-2,5C000490,-0724,1375,6381,031.3,045.4,0.155,750.7,01.17,0.508
2014-03-23 03:24:00,5320E-2,5C000490,-0724,1375,6569,031.3,045.4,0.192,750.8,01.17,0.508
2014-03-23 03:25:00,5322E-2,5C000490,-0724,1375,6511,031.3,045.4,0.197,750.8,01.17,0.508
2014-03-23 03:26:00,5320E-2,5C000490,-0724,1375,6525,031.3,045.4,0.207,750.8,01.17,0.508
2014-03-23 03:27:00,5260E-2,5C000490,-0724,1375,6496,031.4,045.5,0.210,750.9,01.17,0.508
2014-03-23 03:28:00,5328E-2,5C000490,-0724,1375,6516,031.4,045.5,0.193,750.8,01.17,0.508
2014-03-23 03:29:00,5340E-2,5C000490,-0724,1375,6418,031.4,045.5,0.190,750.8,01.17,0.508
2014-03-23 03:30:00,5357E-2,5C000490,-0724,1375,6513,031.4,045.5,0.205,750.8,01.17,0.508
2014-03-23 03:31:00,5356E-2,5C000490,-0724,1376,6512,031.4,045.4,0.218,750.9,01.17,0.508
2014-03-23 03:32:00,5377E-2,5C000490,-0724,1375,6429,031.4,045.5,0.210,750.8,01.17,0.508
2014-03-23 03:33:00,5287E-2,5C000490,-0724,1376,6536,031.4,045.4,0.181,750.8,01.17,0.508
2014-03-23 03:34:00,5399E-2,5C000490,-0724,1376,6436,031.4,045.5,0.200,750.8,01.17,0.508
2014-03-23 03:35:00,5334E-2,5C000490,-0724,1376,6458,031.4,045.4,0.205,750.8,01.17,0.508
2014-03-23 03:36:00,5337E-2,5C000490,-0724,1376,6498,031.4,045.5,0.201,750.8,01.17,0.508
2014-03-23 03:37:00,5363E-2,5C000490,-0724,1376,6436,031.4,045.4,0.190,750.8,01.17,0.508
2014-03-23 03:38:00,5290E-2,5C000490,-0724,1376,6426,031.4,045.5,0.192,750.8,01.17,0.508
2014-03-23 03:39:00,5321E-2,5C000490,-0724,1376,6397,031.4,045.5,0.216,750.9,01.17,0.508
2014-03-23 03:40:00,5286E-2,5C000490,-0724,1376,6503,031.4,045.5,0.201,750.8,01.17,0.508
2014-03-23 03:41:00,5349E-2,5C000490,-0724,1376,6420,031.4,045.5,0.186,750.8,01.17,0.508
2014-03-23 03:42:00,5330E-2,5C000490,-0724,1376,6471,031.5,045.4,0.204,750.8,01.17,0.508
2014-03-23 03:43:00,5339E-2,5C000490,-0724,1376,6449,031.4,045.4,0.205,750.8,01.17,0.508
2014-03-23 03:44:00,5304E-2,5C000490,-0724,1376,6393,031.5,045.5,0.205,750.9,01.17,0.508
2014-03-23 03:45:00,5277E-2,5C000490,-0724,1376,6308,031.5,045.5,0.203,750.8,01.17,0.508
2014-03-23 03:46:00,5323E-2,5C000490,-0724,1376,6314,031.5,045.5,0.202,750.9,01.17,0.508
2014-03-23 03:47:00,5243E-2,5C000490,-0724,1376,6553,031.5,045.5,0.223,750.9,01.17,0.508
2014-03-23 03:48:00,5210E-2,5C000490,-0724,1375,6544,031.5,045.5,0.221,750.9,01.17,0.508
2014-03-23 03:49:00,5211E-2,5C000490,-0724,1375,6517,031.5,045.5,0.212,750.8,01.17,0.508
2014-03-23 03:50:00,5163E-2,5C000490,-0724,1376,6475,031.5,045.5,0.211,750.8,01.17,0.508
2014-03-23 03:51:00,5227E-2,5C000490,-0724,1376,6403,031.5,045.5,0.222,750.9,01.17,0.508
2014-03-23 03:52:00,5216E-2,5C000490,-0724,1376,6422,031.5,045.5,0.236,750.9,01.17,0.508
2014-03-23 03:53:00,5164E-2,5C000490,-0724,1376,6396,031.5,045.5,0.226,750.9,01.17,0.508
2014-03-23 03:54:00,5220E-2,5C000490,-0724,1376,6472,031.5,045.5,0.208,750.9,01.17,0.508
2014-03-23 03:55:00,5164E-2,5C000490,-0724,1376,6358,031.5,045.5,0.206,750.8,01.17,0.508
2014-03-23 03:56:00,5188E-2,5C000490,-0724,1376,6481,031.5,045.4,0.223,750.9,01.17,0.508
2014-03-23 03:57:00,5199E-2,5C000490,-0724,1376,6466,031.5,045.5,0.238,751.0,01.17,0.508
2014-03-23 03:58:00,5217E-2,5C000490,-0724,1376,6392,031.6,045.5,0.207,750.9,01.17,0.508
2014-03-23 03:59:00,5176E-2,5C000490,-0724,1376,6395,031.6,045.5,0.211,750.9,01.17,0.508
2014-03-23 04:00:00,5179E-2,5C000490,-0724,1376,6523,031.6,045.5,0.234,751.0,01.17,0.508
2014-03-23 04:01:00,5213E-2,5C000490,-0724,1376,6487,031.6,045.4,0.220,750.9,01.17,0.508
2014-03-23 04:02:00,5123E-2,5C000490,-0724,1376,6451,031.6,045.5,0.217,750.9,01.17,0.508
2014-03-23 04:03:00,5160E-2,5C000490,-0724,1376,6465,031.6,045.5,0.217,751.0,01.17,0.508
2014-03-23 04:04:00,5182E-2,5C000490,-0724,1376,6454,031.6,045.5,0.214,750.9,01.17,0.508
2014-03-23 04:05:00,5211E-2,5C000490,-0724,1376,6386,031.6,045.5,0.229,751.0,01.17,0.508
2014-03-23 04:06:00,5142E-2,5C000490,-0724,1376,6394,031.6,045.5,0.226,751.0,01.17,0.508
2014-03-23 04:07:00,5231E-2,5C000490,-0724,1376,6357,031.6,045.5,0.200,750.9,01.17,0.508
2014-03-23 04:08:00,5220E-2,5C000490,-0724,1376,6477,031.6,045.5,0.202,750.9,01.17,0.508
2014-03-23 04:09:00,5266E-2,5C000490,-0724,1376,6347,031.6,045.5,0.204,750.9,01.17,0.508
2014-03-23 04:10:00,5174E-2,5C000490,-0724,1376,6483,031.6,045.5,0.216,751.0,01.17,0.508
2014-03-23 04:11:00,5252E-2,5C000490,-0724,1376,6328,031.7,045.5,0.216,751.0,01.17,0.508
2014-03-23 04:12:00,5184E-2,5C000490,-0724,1376,6328,031.7,045.5,0.207,750.9,01.17,0.508
2014-03-23 04:13:00,5286E-2,5C000490,-0724,1376,6360,031.7,045.5,0.219,751.0,01.17,0.508
2014-03-23 04:14:00,5230E-2,5C000490,-0724,1376,6350,031.7,045.5,0.230,751.0,01.17,0.508
2014-03-23 04:15:00,5178E-2,5C000490,-0724,1376,6389,031.7,045.5,0.211,751.0,01.17,0.508
2014-03-23 04:16:00,5206E-2,5C000490,-0724,1376,6273,031.7,045.5,0.226,751.0,01.17,0.508
2014-03-23 04:17:00,5203E-2,5C000490,-0724,1376,6402,031.7,045.5,0.226,751.0,01.17,0.508
2014-03-23 04:18:00,5221E-2,5C000490,-0724,1376,6408,031.7,045.5,0.230,751.0,01.17,0.508
2014-03-23 04:19:00,5200E-2,5C000490,-0724,1376,6372,031.7,045.5,0.247,751.0,01.17,0.508
2014-03-23 04:20:00,5216E-2,5C000490,-0724,1376,6329,031.7,045.5,0.234,751.0,01.17,0.508
2014-03-23 04:21:00,5251E-2,5C000490,-0724,1376,6372,031.7,045.5,0.231,751.0,01.17,0.508
2014-03-23 04:22:00,5184E-2,5C000490,-0724,1376,6345,031.7,045.5,0.239,751.0,01.17,0.508
2014-03-23 04:23:00,5221E-2,5C000490,-0724,1376,6314,031.7,045.5,0.231,751.0,01.17,0.508